Nome, AK

3:56 AM AKDT on May 24, 2017 (GMT -0800)
Nome

Weather History for PAOM - March, 2014

Change the Weather History Date:

Sunday, March 23, 2014

  Actual Average Record
Temperature  
Mean Temperature 27 °F 11 °F  
Max Temperature 31 °F 19 °F 41 °F (1990)
Min Temperature 22 °F 3 °F -35 °F (1975)
Degree Days  
Heating Degree Days 38 54  
Month to date heating degree days 1248 1270  
Since 1 July heating degree days 9394 10549  
Cooling Degree Days 0 0  
Month to date cooling degree days 0 0  
Year to date cooling degree days 0 0  
Moisture  
Dew Point 6 °F    
Average Humidity 0    
Maximum Humidity 0    
Minimum Humidity 0    
Precipitation  
Precipitation 0.00 in 0.02 in 0.25 in (1942)
Month to date precipitation 0.53 0.49  
Year to date precipitation 2.70 2.36  
Snow  
Snow 0.00 in 0.30 in 2.60 in (1942)
Month to date snowfall 12.3 6.9  
Since 1 July snowfall 66.6 63.6  
Snow Depth 15.00 in    
Sea Level Pressure  
Sea Level Pressure 30.41 in    
Wind  
Wind Speed 13 mph (ENE)    
Max Wind Speed 17 mph    
Max Gust Speed 22 mph    
Visibility 10 miles    
Events      
T = Trace of Precipitation, MM = Missing Value Source: NWS Daily Summary

Daily Weather History Graph

Daily Weather History Graph

Search for Another Location

Airport or City:

Trip Planner

Search our weather history database for the weather conditions in past years. The results will help you decide how hot, cold, wet, or windy it might be!

Date:

Astronomy

Mar. 23, 2014 Rise Set
Actual Time 8:50 AM AKDT 9:27 PM AKDT
Civil Twilight 8:01 AM AKDT 10:16 PM AKDT
Nautical Twilight 7:01 AM AKDT 11:17 PM AKDT
Astronomical Twilight 5:50 AM AKDT 12:29 AM AKDT
Moon 5:48 AM AKDT (3/23) 11:52 AM AKDT (3/23)
Length of Visible Light 14h 14m
Length of Day
12h 37m
Waning Gibbous, 53% of the Moon is Illuminated
Mar 23
Waning Gibbous
Mar 23
Last Quarter
Mar 30
New
Apr 7
First Quarter
Apr 14
Full

Hourly Weather History & Observations

Time (AKDT) Temp. Windchill Dew Point Humidity Pressure Visibility Wind Dir Wind Speed Gust Speed Precip Events Conditions
12:53 AM 25.0 °F 15.5 °F 1.0 °F 36% 30.50 in 10.0 mi NE 9.2 mph - N/A   Clear
1:53 AM 26.1 °F 15.6 °F 1.0 °F 34% 30.50 in 10.0 mi ENE 11.5 mph - N/A   Clear
2:53 AM 23.0 °F 13.1 °F 3.0 °F 42% 30.50 in 10.0 mi ENE 9.2 mph - N/A   Clear
3:53 AM 23.0 °F 12.4 °F 3.0 °F 42% 30.49 in 10.0 mi ENE 10.4 mph - N/A   Clear
4:53 AM 23.0 °F 12.4 °F 3.0 °F 42% 30.48 in 10.0 mi ENE 10.4 mph - N/A   Clear
5:53 AM 23.0 °F 11.1 °F 3.0 °F 42% 30.48 in 10.0 mi ENE 12.7 mph - N/A   Partly Cloudy
6:53 AM 24.1 °F 12.5 °F 3.0 °F 40% 30.46 in 10.0 mi ENE 12.7 mph - N/A   Partly Cloudy
7:53 AM 24.1 °F 13.7 °F 3.0 °F 40% 30.45 in 10.0 mi ENE 10.4 mph - N/A   Partly Cloudy
8:53 AM 24.1 °F 13.7 °F 3.0 °F 40% 30.44 in 10.0 mi ENE 10.4 mph - N/A   Clear
9:53 AM 25.0 °F 15.5 °F 3.0 °F 39% 30.44 in 10.0 mi ENE 9.2 mph - N/A   Partly Cloudy
10:53 AM 27.0 °F 17.3 °F 3.0 °F 36% 30.44 in 10.0 mi ENE 10.4 mph - N/A   Partly Cloudy
11:53 AM 27.0 °F 17.3 °F 3.9 °F 37% 30.43 in 10.0 mi ENE 10.4 mph - N/A   Clear
12:53 PM 28.0 °F 17.0 °F 6.1 °F 39% 30.42 in 10.0 mi ENE 13.8 mph - N/A   Partly Cloudy
1:53 PM 28.9 °F 18.6 °F 8.1 °F 41% 30.40 in 10.0 mi ENE 12.7 mph - N/A   Partly Cloudy
2:53 PM 30.0 °F 19.5 °F 10.0 °F 43% 30.40 in 10.0 mi East 13.8 mph - N/A   Partly Cloudy
3:53 PM 30.0 °F 21.1 °F 12.0 °F 47% 30.39 in 10.0 mi East 10.4 mph - N/A   Partly Cloudy
4:53 PM 30.0 °F 18.3 °F 10.9 °F 45% 30.38 in 10.0 mi East 17.3 mph - N/A   Scattered Clouds
5:53 PM 30.0 °F 19.1 °F 12.0 °F 47% 30.37 in 10.0 mi East 15.0 mph - N/A   Scattered Clouds
6:53 PM 30.9 °F 21.2 °F 10.9 °F 43% 30.36 in 10.0 mi ENE 12.7 mph - N/A   Scattered Clouds
7:53 PM 30.0 °F 19.5 °F 10.0 °F 43% 30.34 in 10.0 mi ENE 13.8 mph - N/A   Scattered Clouds
8:53 PM 28.0 °F 16.1 °F 9.0 °F 45% 30.31 in 10.0 mi ENE 16.1 mph - N/A   Scattered Clouds
9:53 PM 26.1 °F 15.0 °F 10.0 °F 51% 30.31 in 10.0 mi East 12.7 mph - N/A   Mostly Cloudy
10:53 PM 27.0 °F 15.6 °F 9.0 °F 47% 30.30 in 10.0 mi East 13.8 mph - N/A   Mostly Cloudy
11:53 PM 26.1 °F 14.0 °F 9.0 °F 49% 30.31 in 10.0 mi East 15.0 mph - N/A   Scattered Clouds